CFG1LJ EDDH-LGKL

Flight info

Callsign CFG1LJ
Flight time N/A
Altitude 37000
Route AMLUH3B AMLUH M852 DENIX DCT ZUCKA DCT ARMUT DCT LAMSI DCT MAGAM DCT PETAK DCT PITAS UN732 KRK UA14 ARA UL612 TRL J61 IPTAG
Aircraft A321/M-SDE3FGHIJ1J4J7LORVWXYZ/SB1B2D1G1

Departure

Time N/A
Airport Hamburg Helmut Schmidt Airport (EDDH)

Arrival

Time 2026-05-01 15:30
Airport Kalamata Airport (LGKL)
Time Latitude Longitude Altitude Speed Heading
2026-05-01 14:58 39.05772 20.47108 35023 ft 504 kts 149°
2026-05-01 14:58 39.03022 20.49916 35023 ft 504 kts 150°
2026-05-01 14:58 38.97476 20.55460 35033 ft 504 kts 150°
2026-05-01 14:59 38.92845 20.60034 35039 ft 505 kts 150°
2026-05-01 14:59 38.87276 20.65539 35041 ft 505 kts 150°
2026-05-01 15:00 38.79006 20.73989 35046 ft 507 kts 149°
2026-05-01 15:01 38.73523 20.79696 35048 ft 508 kts 149°
2026-05-01 15:01 38.68020 20.85372 35046 ft 507 kts 149°
2026-05-01 15:02 38.62499 20.91002 35048 ft 507 kts 150°
2026-05-01 15:02 38.57002 20.96675 35045 ft 509 kts 148°
2026-05-01 15:03 38.51664 21.02674 35020 ft 512 kts 146°
2026-05-01 15:03 38.46397 21.08804 35037 ft 512 kts 146°
2026-05-01 15:04 38.41124 21.14826 35051 ft 512 kts 147°
2026-05-01 15:04 38.35767 21.20802 35054 ft 511 kts 147°
2026-05-01 15:05 38.30401 21.26767 35052 ft 511 kts 147°
2026-05-01 15:05 38.25047 21.32737 34861 ft 512 kts 147°
2026-05-01 15:05 38.22371 21.35725 34623 ft 511 kts 147°
2026-05-01 15:06 38.19699 21.38707 34392 ft 511 kts 147°
2026-05-01 15:06 38.17030 21.41682 34163 ft 511 kts 148°
2026-05-01 15:06 38.14363 21.44683 33914 ft 513 kts 147°
2026-05-01 15:06 38.11740 21.47774 33645 ft 516 kts 145°
2026-05-01 15:07 38.09157 21.50944 33379 ft 518 kts 144°
2026-05-01 15:07 38.06592 21.54165 33117 ft 519 kts 144°
2026-05-01 15:07 38.04030 21.57391 32867 ft 519 kts 144°
2026-05-01 15:07 38.01489 21.60563 32614 ft 520 kts 144°
2026-05-01 15:08 37.98896 21.63756 32355 ft 520 kts 144°
2026-05-01 15:08 37.96280 21.66938 32044 ft 520 kts 144°
2026-05-01 15:08 37.93660 21.70102 31656 ft 519 kts 144°
2026-05-01 15:08 37.91076 21.73220 31496 ft 506 kts 145°
2026-05-01 15:09 37.88557 21.76268 31364 ft 494 kts 145°
2026-05-01 15:09 37.86060 21.79283 30452 ft 501 kts 145°
2026-05-01 15:09 37.83499 21.82351 29273 ft 512 kts 145°
2026-05-01 15:09 37.80889 21.85477 28172 ft 519 kts 144°
2026-05-01 15:10 37.78276 21.88623 27603 ft 514 kts 144°
2026-05-01 15:10 37.73140 21.94840 26116 ft 512 kts 143°
2026-05-01 15:10 37.70568 21.97951 25386 ft 511 kts 143°
2026-05-01 15:11 37.67996 22.01050 24622 ft 509 kts 143°
2026-05-01 15:11 37.62883 22.07189 23353 ft 502 kts 143°
2026-05-01 15:11 37.60373 22.10202 22738 ft 495 kts 142°
2026-05-01 15:12 37.57887 22.13178 22078 ft 490 kts 142°
2026-05-01 15:12 37.52994 22.19014 20890 ft 477 kts 142°
2026-05-01 15:12 37.50606 22.21862 20323 ft 470 kts 142°
2026-05-01 15:13 37.43106 22.28913 18633 ft 430 kts 168°
2026-05-01 15:14 37.37488 22.29390 17901 ft 383 kts 197°
2026-05-01 15:14 37.35014 22.28480 17756 ft 359 kts 209°
2026-05-01 15:14 37.31070 22.25303 17470 ft 322 kts 223°
2026-05-01 15:15 37.27663 22.21992 17132 ft 300 kts 224°
2026-05-01 15:15 37.24430 22.18787 16481 ft 293 kts 223°
2026-05-01 15:16 37.21158 22.15767 15934 ft 291 kts 221°
2026-05-01 15:16 37.17860 22.12755 15444 ft 293 kts 221°
2026-05-01 15:17 37.14586 22.09745 14945 ft 291 kts 221°
2026-05-01 15:18 37.09719 22.05245 14221 ft 288 kts 221°
2026-05-01 15:18 37.08067 22.03867 13980 ft 292 kts 212°
2026-05-01 15:19 37.01892 22.03564 13192 ft 310 kts 174°
2026-05-01 15:19 36.97667 22.04634 12670 ft 309 kts 173°
2026-05-01 15:19 36.95547 22.05164 12171 ft 312 kts 173°
2026-05-01 15:20 36.91225 22.06196 11170 ft 321 kts 174°
2026-05-01 15:20 36.89014 22.06701 10662 ft 322 kts 173°
2026-05-01 15:20 36.86856 22.07198 10293 ft 307 kts 173°
2026-05-01 15:21 36.84800 22.07431 9970 ft 289 kts 188°
2026-05-01 15:21 36.82901 22.06972 9628 ft 269 kts 204°
2026-05-01 15:21 36.81282 22.05969 9286 ft 253 kts 218°
2026-05-01 15:21 36.79844 22.04741 8892 ft 249 kts 218°
2026-05-01 15:22 36.76963 22.02536 8108 ft 241 kts 200°
2026-05-01 15:22 36.75298 22.02437 7728 ft 244 kts 167°
2026-05-01 15:22 36.73841 22.03491 7374 ft 249 kts 130°
2026-05-01 15:23 36.73099 22.05412 7239 ft 252 kts 100°
2026-05-01 15:23 36.73207 22.07550 6853 ft 247 kts 67°
2026-05-01 15:23 36.74148 22.09262 6495 ft 237 kts 36°
2026-05-01 15:23 36.75626 22.09976 6010 ft 227 kts 353°
2026-05-01 15:24 36.77117 22.09546 5700 ft 219 kts 340°
2026-05-01 15:24 36.78602 22.09108 5408 ft 220 kts 345°
2026-05-01 15:24 36.80107 22.08749 5102 ft 220 kts 346°
2026-05-01 15:24 36.81620 22.08400 4827 ft 222 kts 346°
2026-05-01 15:25 36.83153 22.08045 4510 ft 227 kts 346°
2026-05-01 15:25 36.84725 22.07681 4202 ft 231 kts 347°
2026-05-01 15:25 36.86298 22.07317 3896 ft 236 kts 346°
2026-05-01 15:25 36.87925 22.06940 3550 ft 238 kts 346°
2026-05-01 15:26 36.89533 22.06565 3258 ft 233 kts 348°
2026-05-01 15:26 36.91107 22.06203 2947 ft 225 kts 347°
2026-05-01 15:26 36.92607 22.05853 2658 ft 210 kts 348°
2026-05-01 15:26 36.93984 22.05533 2391 ft 195 kts 349°
2026-05-01 15:27 36.95299 22.05227 2124 ft 190 kts 349°
2026-05-01 15:27 36.96591 22.04926 1869 ft 188 kts 351°
2026-05-01 15:27 36.97860 22.04631 1648 ft 177 kts 352°
2026-05-01 15:28 37.00085 22.04113 1165 ft 154 kts 349°
2026-05-01 15:28 37.01126 22.03871 959 ft 150 kts 349°
2026-05-01 15:28 37.02131 22.03637 751 ft 145 kts 348°
2026-05-01 15:29 37.04097 22.03179 388 ft 143 kts 348°
2026-05-01 15:29 37.05072 22.02948 203 ft 143 kts 347°
2026-05-01 15:29 37.06881 22.02529 33 ft 98 kts 349°
2026-05-01 15:30 37.07607 22.02361 32 ft 21 kts 350°
2026-05-01 15:31 37.07812 22.02439 34 ft 11 kts 169°
2026-05-01 15:31 37.07643 22.02479 34 ft 19 kts 169°
2026-05-01 15:32 37.07394 22.02536 34 ft 17 kts 169°
2026-05-01 15:32 37.07178 22.02587 34 ft 15 kts 169°
2026-05-01 15:33 37.06810 22.02673 34 ft 20 kts 169°
2026-05-01 15:34 37.06438 22.02759 34 ft 18 kts 169°